This demonstration page uses our WeatherBlox Daily Observations layout. Learn more.

39.92423, -83.80882

Hourly Observations for August 17, 2018

Temp ( °F °C ) Dew Point ( °F °C ) Humidity (%) Winds ( mph kmh ) Pressure ( in mb ) Visibility ( mi km ) Precip ( " mm )
12:03 am 00:03 Cloudy with Light Rain 72 22 72 22 100 100 VRB 5 7 30 1016 7 11.26538 0 0.0254
12:13 am 00:13 Cloudy with Light Rain 72 22 72 22 100 100 W 5 7 30 1016 8 12.87472 0.02 0.508
12:24 am 00:24 Cloudy with Heavy Thunderstorms 72 22 72 22 100 100 WNW 6 9 29.97 1015 3 4.82802 0.14 3.556
12:56 am 00:56 Cloudy with Thunderstorms 72 22.2 72 22.2 100 100 W 9 15 30.01 1016 8 12.87472 0.16 4.064
1:56 am 01:56 Cloudy with Nearby Thunderstorms 72 22.2 72 22.2 100 100 SW 8 13 30 1016 10 16.0934 0.01 0.254
2:06 am 02:06 Cloudy 72 22 72 22 100 100 SSW 7 11 29.97 1015 10 16.0934 0 0
2:45 am 02:45 Mostly Cloudy 72 22 72 22 100 100 SW 7 11 29.97 1015 10 16.0934 0 0
2:56 am 02:56 Mostly Cloudy 72 22.2 72 22.2 100 100 SSW 6 9 29.98 1015 10 16.0934 0 0
3:56 am 03:56 Cloudy 72 22.2 72 22.2 100 100 SSW 6 9 29.99 1016 10 16.0934 0 0
4:23 am 04:23 Cloudy 72 22 72 22 100 100 S 7 11 29.97 1015 7 11.26538 0 0
4:56 am 04:56 Cloudy 72 22.2 72 22.2 100 100 SSW 3 6 29.99 1016 8 12.87472 0 0
5:56 am 05:56 Cloudy with Mist and Fog 72 22.2 72 22.2 100 100 SSW 6 9 29.99 1016 4 6.43736 0 0.0254
6:56 am 06:56 Cloudy with Haze N/A N/A N/A SW 9 15 N/A 4 6.43736 0 0
7:56 am 07:56 Cloudy with Mist and Fog 73 22.8 73 22.8 100 100 SW 6 9 29.99 1016 3 4.82802 0 0
8:42 am 08:42 Cloudy with Mist and Fog 73 23 73 23 100 100 SSW 6 9 30 1016 2.5 4.02335 0 0
8:56 am 08:56 Cloudy with Mist and Fog 73 22.8 73 22.8 100 100 SSW 5 7 30 1016 2 3.21868 0 0
9:15 am 09:15 Cloudy with Mist and Fog 73 23 73 23 100 100 VRB 3 6 29.97 1015 1.75 2.816345 0 0
9:32 am 09:32 Cloudy with Mist and Fog 73 23 73 23 100 100 SSW 5 7 29.97 1015 0.75 1.207005 0 0
9:56 am 09:56 Cloudy with Light Rain 73 22.8 73 22.8 100 100 SSW 7 11 29.98 1015 0.75 1.207005 0.01 0.254
10:06 am 10:06 Cloudy with Mist and Fog 73 23 73 23 100 100 SSW 7 11 29.97 1015 1.25 2.011675 0 0.0254
10:18 am 10:18 Cloudy with Nearby Thunderstorms 73 23 73 23 100 100 SSW 9 15 29.97 1015 2 3.21868 0 0.0254
10:45 am 10:45 Cloudy with Heavy Rain 70 21 68 20 94 94 WNW 14 22 30 1016 1.25 2.011675 0.24 6.096
10:49 am 10:49 Partly Cloudy with Heavy Thunderstorms 68 20 68 20 100 100 WNW 8 13 30 1016 1.25 2.011675 0.32 8.128
10:56 am 10:56 Partly Cloudy with Heavy Thunderstorms 68 20 68 20 100 100 SW 5 7 30.01 1016 5 8.0467 0.35 8.89
11:39 am 11:39 Sunny 72 22 70 21 94 94 S 5 7 29.97 1015 10 16.0934 0 0.0254
11:56 am 11:56 Sunny 74 23.3 72 22.2 94 94 S 6 9 29.97 1015 10 16.0934 0 0.0254
12:56 pm 12:56 Sunny 77 25 74 23.3 90 90 VRB 7 11 29.98 1015 10 16.0934 0 0
1:56 pm 13:56 Sunny 78 25.6 74 23.3 87 87 SW 9 15 29.98 1015 10 16.0934 0 0
2:56 pm 14:56 Sunny 78 25.6 74 23.3 87 87 SW 10 17 29.98 1015 10 16.0934 0 0
3:56 pm 15:56 Sunny 77 25 72 22.2 85 85 W 10 17 29.97 1015 10 16.0934 0 0
4:56 pm 16:56 Sunny 78 25.6 72 22.2 82 82 WSW 9 15 29.96 1014 10 16.0934 0 0
5:56 pm 17:56 Sunny 79 26.1 72 22.2 79 79 WSW 14 22 29.95 1014 10 16.0934 0 0
6:56 pm 18:56 Sunny 76 24.4 70 21.1 82 82 SW 13 20 29.94 1014 10 16.0934 0 0
7:56 pm 19:56 Sunny 73 22.8 70 21.1 90 90 WSW 6 9 29.97 1015 10 16.0934 0.01 0.254
8:56 pm 20:56 Clear 72 22.2 71 21.7 97 97 W 7 11 29.98 1015 10 16.0934 0 0
9:56 pm 21:56 Clear 71 21.7 71 21.7 100 100 W 6 9 29.99 1016 10 16.0934 0 0
10:56 pm 22:56 Clear 71 21.7 71 21.7 100 100 WNW 5 7 29.99 1016 10 16.0934 0 0
11:56 pm 23:56 Clear 71 21.7 71 21.7 100 100 WSW 3 6 29.99 1016 10 16.0934 0 0.0254

Powered by AerisWeather